DW2822 Weather Reports


time (UTC)temp
C
wind
direction
speed
KPH
gust
KPH
rain 1hr
cm
rain 24hr
cm
rain mn
cm
humidity
%
barometer
mb
20260507153035 12 198 6.4 12.9 0.00 0.00 0.00 66 1014.5
20260507151534 12 191 6.4 11.3 0.00 0.00 0.00 65 1014.5
20260507150005 12 146 3.2 11.3 0.00 0.00 0.00 65 1014.5
20260507144503 12 166 4.8 9.7 0.00 0.00 0.00 64 1014.6
20260507143054 12 148 4.8 8.0 0.00 0.00 0.00 64 1014.7
20260507141553 12 154 4.8 12.9 0.00 0.00 0.00 64 1014.7
20260507140033 12 169 3.2 11.3 0.00 0.00 0.00 65 1014.8
20260507134535 12 176 4.8 11.3 0.00 0.00 0.00 65 1014.8
20260507133021 12 177 6.4 11.3 0.00 0.00 0.00 65 1014.9
20260507131521 12 98 1.6 6.4 0.00 0.00 0.00 65 1014.9
20260507124556 13 112 4.8 14.5 0.00 0.00 0.00 66 1014.9
20260507123037 13 71 9.7 14.5 0.00 0.00 0.00 66 1014.9
20260507121537 13 110 6.4 14.5 0.00 0.00 0.00 66 1014.9
20260507120001 13 104 9.7 16.1 0.00 0.00 0.00 67 1015.1
20260507114505 13 56 11.3 19.3 0.00 0.00 0.00 69 1015.2
20260507113058 12 84 4.8 12.9 0.00 0.00 0.00 73 1015.2
20260507111555 12 78 8.0 16.1 0.00 0.00 0.00 74 1015.2
20260507110036 11 68 9.7 16.1 0.00 0.00 0.00 75 1015.4
20260507104531 11 59 6.4 16.1 0.00 0.00 0.00 77 1015.5
20260507103025 10 78 6.4 12.9 0.00 0.00 0.00 78 1015.5
20260507101523 10 103 4.8 11.3 0.00 0.00 0.00 80 1015.6
20260507100048 8 86 6.4 11.3 0.00 0.00 0.00 80 1015.6
20260507094547 8 73 4.8 11.3 0.00 0.00 0.00 79 1015.6
20260507093043 8 120 3.2 9.7 0.00 0.00 0.00 78 1015.7
20260507091543 7 115 3.2 9.7 0.00 0.00 0.00 78 1015.6
20260507090010 7 85 6.4 9.7 0.00 0.00 0.00 78 1015.6
20260507084510 7 71 4.8 9.7 0.00 0.00 0.00 77 1015.6
20260507083003 7 98 3.2 8.0 0.00 0.00 0.00 77 1015.7
20260507081503 7 84 4.8 8.0 0.00 0.00 0.00 77 1015.5
20260507080042 7 83 4.8 12.9 0.00 0.00 0.00 77 1015.5
20260507074601 7 60 3.2 8.0 0.00 0.00 0.00 77 1015.5
20260507073042 7 85 4.8 8.0 0.00 0.00 0.00 77 1015.5
20260507071536 7 73 4.8 8.0 0.00 0.00 0.00 78 1015.4
20260507070115 7 85 4.8 6.4 0.00 0.00 0.00 77 1015.3
20260507064610 7 65 3.2 6.4 0.00 0.00 0.00 77 1015.1
20260507063057 7 73 4.8 8.0 0.00 0.00 0.00 77 1015.1
20260507061549 7 73 3.2 6.4 0.00 0.00 0.00 77 1015.1
20260507060043 7 66 3.2 6.4 0.00 0.00 0.00 77 1015.1
20260507054528 7 82 3.2 6.4 0.00 0.00 0.00 76 1015.0
20260507053007 7 82 3.2 6.4 0.00 0.00 0.00 76 1014.9
20260507051505 7 81 3.2 6.4 0.00 0.00 0.00 76 1014.9
20260507050040 7 63 3.2 6.4 0.00 0.00 0.00 76 1014.9
20260507044542 7 62 3.2 6.4 0.00 0.00 0.00 76 1014.8
20260507043031 7 61 1.6 4.8 0.00 0.00 0.00 76 1014.8
20260507041533 7 76 3.2 6.4 0.00 0.00 0.00 76 1014.7
20260507040113 7 55 3.2 8.0 0.00 0.00 0.00 76 1014.7
20260507034616 7 39 6.4 8.0 0.00 0.00 0.00 76 1014.7
20260507033104 7 46 4.8 9.7 0.00 0.00 0.00 76 1014.8
20260507031618 7 48 6.4 11.3 0.00 0.00 0.00 76 1014.9
20260507030031 7 44 4.8 9.7 0.00 0.00 0.00 76 1014.8
20260507024527 7 35 4.8 11.3 0.00 0.00 0.00 75 1014.8
20260507023010 7 63 6.4 11.3 0.00 0.00 0.00 75 1014.8
20260507021510 7 57 6.4 9.7 0.00 0.00 0.00 75 1014.8
20260507020045 7 39 4.8 8.0 0.00 0.00 0.00 75 1014.8
20260507014551 7 44 4.8 9.7 0.00 0.00 0.00 74 1014.8
20260507013047 7 21 4.8 9.7 0.00 0.00 0.00 74 1014.7
20260507011536 7 46 4.8 9.7 0.00 0.00 0.00 74 1014.8
20260507010002 7 44 4.8 8.0 0.00 0.00 0.00 73 1014.9
20260507004502 7 51 6.4 8.0 0.00 0.00 0.00 73 1014.8
20260507003054 7 51 3.2 8.0 0.00 0.00 0.00 73 1014.8
20260507001556 7 50 4.8 9.7 0.00 0.00 0.00 73 1014.9
20260507000032 7 49 4.8 9.7 0.00 0.00 0.00 72 1015.1
20260506234537 7 52 6.4 11.3 0.00 0.00 0.00 72 1014.9
20260506233034 8 58 6.4 11.3 0.00 0.00 0.00 72 1014.8
20260506231529 8 46 6.4 11.3 0.00 0.00 0.00 71 1014.9
20260506230106 8 39 8.0 11.3 0.00 0.00 0.00 70 1014.9
20260506224554 8 39 8.0 12.9 0.00 0.00 0.00 70 1014.9
20260506223049 8 70 8.0 12.9 0.00 0.00 0.00 69 1014.8
20260506221554 8 58 9.7 14.5 0.00 0.00 0.00 69 1014.9
20260506220029 8 44 9.7 14.5 0.00 0.00 0.00 68 1014.7
20260506214526 8 62 9.7 16.1 0.00 0.00 0.00 68 1014.7
20260506213018 8 53 9.7 16.1 0.00 0.00 0.00 67 1014.6
20260506211525 8 53 9.7 14.5 0.00 0.00 0.00 66 1014.5
20260506210052 9 45 8.0 14.5 0.00 0.00 0.00 65 1014.3
20260506204556 9 46 8.0 14.5 0.00 0.00 0.00 64 1014.3
20260506203040 9 36 9.7 14.5 0.00 0.00 0.00 63 1014.2
20260506201541 10 13 9.7 14.5 0.00 0.00 0.00 62 1014.0
20260506200032 10 15 9.7 16.1 0.00 0.00 0.00 61 1013.9
20260506194518 10 6 6.4 14.5 0.00 0.00 0.00 59 1013.7
20260506193004 10 27 4.8 11.3 0.00 0.00 0.00 58 1013.7
20260506191506 10 49 4.8 12.9 0.00 0.00 0.00 58 1013.6
20260506190046 11 45 4.8 14.5 0.00 0.00 0.00 57 1013.6
20260506184545 11 58 6.4 11.3 0.00 0.00 0.00 57 1013.5
20260506183043 11 75 4.8 9.7 0.00 0.00 0.00 57 1013.5
20260506181546 11 29 3.2 9.7 0.00 0.00 0.00 57 1013.5
20260506180027 11 33 6.4 11.3 0.00 0.00 0.00 57 1013.3
20260506174517 11 35 6.4 11.3 0.00 0.00 0.00 57 1013.4
20260506173022 12 36 6.4 12.9 0.00 0.00 0.00 57 1013.3
20260506171504 12 58 4.8 11.3 0.00 0.00 0.00 57 1013.2
20260506170038 12 23 4.8 11.3 0.00 0.00 0.00 57 1013.2
20260506164517 12 57 8.0 17.7 0.00 0.00 0.00 56 1013.1
20260506163012 12 43 8.0 16.1 0.00 0.00 0.00 57 1013.0
20260506161504 12 39 9.7 19.3 0.00 0.00 0.00 56 1013.1
20260506160050 12 20 6.4 12.9 0.00 0.00 0.00 57 1013.1
20260506154551 12 3 6.4 14.5 0.00 0.00 0.00 57 1013.1